{"data":{"norad_id":60052,"intl_designator":"2024-112Q","name":"STARLINK-31775","alt_names":[],"object_type":"PAYLOAD","status":"ACTIVE","operator":null,"country":"US","launch_date":"2024-06-08","launch_site_code":"AFWTR","launch_vehicle":null,"mission":null,"orbit_class":"UNKNOWN","rcs_meters":null,"size_class":null,"mass_kg":null,"dimensions":null,"purposes":["comms"],"wikipedia_slug":null,"has_3d_model":false,"image_url":null,"decayed_at":null,"tle_current":{"epoch":"2026-09-21T15:51:03.830400Z","epoch_age_seconds":77145,"freshness":"FRESH","line1":"1 60052U 24112Q   26264.66046100  .00000089  00000+0  13779-4 0  9993","line2":"2 60052  53.1596 246.1003 0001636  86.6941 273.4249 15.34389203128628","mean_motion":15.34389203,"eccentricity":0.0001636,"inclination_deg":53.1596,"raan_deg":246.1003,"arg_perigee_deg":86.6941,"mean_anomaly_deg":273.4249,"bstar":1.3779e-5,"rev_number":12862,"period_min":93.848418457621,"perigee_km":461.61616464124,"apogee_km":463.85449806806,"semimajor_km":6840.8723313546,"source":"CELESTRAK","updated_at":"2026-09-22T09:00:49.144475Z"}}}